Year,Month,Day,Hour,Minute,Value (Times are PST for temperature in C)
2009,07,18,00,00,19.10
2009,07,18,00,01,19.10
2009,07,18,00,02,19.10
2009,07,18,00,03,19.00
2009,07,18,00,04,18.90
2009,07,18,00,05,18.90
2009,07,18,00,06,18.90
2009,07,18,00,07,18.90
2009,07,18,00,08,18.90
2009,07,18,00,09,18.90
2009,07,18,00,10,18.90
2009,07,18,00,11,18.90
2009,07,18,00,12,18.90
2009,07,18,00,13,18.90
2009,07,18,00,14,18.90
2009,07,18,00,15,18.90
2009,07,18,00,16,18.90
2009,07,18,00,17,18.90
2009,07,18,00,18,18.80
2009,07,18,00,19,18.80
2009,07,18,00,20,18.80
2009,07,18,00,21,18.80
2009,07,18,00,22,18.70
2009,07,18,00,23,18.70
2009,07,18,00,24,18.70
2009,07,18,00,25,18.70
2009,07,18,00,26,18.70
2009,07,18,00,27,18.70
2009,07,18,00,28,18.60
2009,07,18,00,29,18.60
2009,07,18,00,30,18.60
2009,07,18,00,31,18.60
2009,07,18,00,32,18.60
2009,07,18,00,33,18.60
2009,07,18,00,34,18.60
2009,07,18,00,35,18.50
2009,07,18,00,36,18.50
2009,07,18,00,37,18.50
2009,07,18,00,38,18.50
2009,07,18,00,39,18.50
2009,07,18,00,40,18.50
2009,07,18,00,41,18.50
2009,07,18,00,42,18.50
2009,07,18,00,43,18.40
2009,07,18,00,44,18.40
2009,07,18,00,45,18.40
2009,07,18,00,46,18.40
2009,07,18,00,47,18.40
2009,07,18,00,48,18.40
2009,07,18,00,49,18.30
2009,07,18,00,50,18.30
2009,07,18,00,51,18.20
2009,07,18,00,52,18.20
2009,07,18,00,53,18.20
2009,07,18,00,54,18.20
2009,07,18,00,55,18.20
2009,07,18,00,56,18.20
2009,07,18,00,57,18.20
2009,07,18,00,58,18.20
2009,07,18,00,59,18.20
2009,07,18,01,00,18.20
2009,07,18,01,01,18.10
2009,07,18,01,02,18.00
2009,07,18,01,03,17.90
2009,07,18,01,04,17.90
2009,07,18,01,05,17.80
2009,07,18,01,06,17.80
2009,07,18,01,07,17.70
2009,07,18,01,08,17.70
2009,07,18,01,09,17.60
2009,07,18,01,10,17.50
2009,07,18,01,11,17.40
2009,07,18,01,12,17.40
2009,07,18,01,13,17.40
2009,07,18,01,14,17.30
2009,07,18,01,15,17.30
2009,07,18,01,16,17.30
2009,07,18,01,17,17.20
2009,07,18,01,18,17.20
2009,07,18,01,19,17.10
2009,07,18,01,20,17.10
2009,07,18,01,21,17.10
2009,07,18,01,22,17.00
2009,07,18,01,23,17.00
2009,07,18,01,24,16.90
2009,07,18,01,25,16.80
2009,07,18,01,26,16.80
2009,07,18,01,27,16.70
2009,07,18,01,28,16.70
2009,07,18,01,29,16.60
2009,07,18,01,30,16.60
2009,07,18,01,31,16.50
2009,07,18,01,32,16.40
2009,07,18,01,33,16.40
2009,07,18,01,34,16.40
2009,07,18,01,35,16.30
2009,07,18,01,36,16.30
2009,07,18,01,37,16.30
2009,07,18,01,38,16.30
2009,07,18,01,39,16.40
2009,07,18,01,40,16.40
2009,07,18,01,41,16.40
2009,07,18,01,42,16.40
2009,07,18,01,43,16.60
2009,07,18,01,44,16.80
2009,07,18,01,45,17.00
2009,07,18,01,46,17.20
2009,07,18,01,47,17.40
2009,07,18,01,48,17.60
2009,07,18,01,49,17.70
2009,07,18,01,50,17.90
2009,07,18,01,51,18.00
2009,07,18,01,52,18.20
2009,07,18,01,53,18.20
2009,07,18,01,54,18.30
2009,07,18,01,55,18.40
2009,07,18,01,56,18.50
2009,07,18,01,57,18.50
2009,07,18,01,58,18.60
2009,07,18,01,59,18.60
2009,07,18,02,00,18.70
2009,07,18,02,01,18.70
2009,07,18,02,02,18.80
2009,07,18,02,03,18.80
2009,07,18,02,04,18.90
2009,07,18,02,05,18.90
2009,07,18,02,06,18.90
2009,07,18,02,07,18.80
2009,07,18,02,08,18.70
2009,07,18,02,09,18.70
2009,07,18,02,10,18.70
2009,07,18,02,11,18.60
2009,07,18,02,12,18.40
2009,07,18,02,13,18.20
2009,07,18,02,14,18.00
2009,07,18,02,15,17.80
2009,07,18,02,16,17.60
2009,07,18,02,17,17.40
2009,07,18,02,18,17.30
2009,07,18,02,19,17.10
2009,07,18,02,20,16.90
2009,07,18,02,21,16.80
2009,07,18,02,22,16.70
2009,07,18,02,23,16.50
2009,07,18,02,24,16.40
2009,07,18,02,25,16.30
2009,07,18,02,26,16.20
2009,07,18,02,27,16.10
2009,07,18,02,28,16.10
2009,07,18,02,29,16.00
2009,07,18,02,30,15.90
2009,07,18,02,31,15.80
2009,07,18,02,32,15.80
2009,07,18,02,33,15.80
2009,07,18,02,34,15.70
2009,07,18,02,35,15.60
2009,07,18,02,36,15.60
2009,07,18,02,37,15.50
2009,07,18,02,38,15.50
2009,07,18,02,39,15.50
2009,07,18,02,40,15.40
2009,07,18,02,41,15.40
2009,07,18,02,42,15.30
2009,07,18,02,43,15.30
2009,07,18,02,44,15.30
2009,07,18,02,45,15.30
2009,07,18,02,46,15.20
2009,07,18,02,47,15.20
2009,07,18,02,48,15.20
2009,07,18,02,49,15.20
2009,07,18,02,50,15.20
2009,07,18,02,51,15.10
2009,07,18,02,52,15.10
2009,07,18,02,53,15.10
2009,07,18,02,54,15.10
2009,07,18,02,55,15.10
2009,07,18,02,56,15.10
2009,07,18,02,57,15.10
2009,07,18,02,58,15.00
2009,07,18,02,59,15.00
2009,07,18,03,00,15.00
2009,07,18,03,01,15.00
2009,07,18,03,02,14.90
2009,07,18,03,03,14.90
2009,07,18,03,04,14.90
2009,07,18,03,05,14.90
2009,07,18,03,06,14.90
2009,07,18,03,07,14.90
2009,07,18,03,08,14.90
2009,07,18,03,09,14.90
2009,07,18,03,10,14.80
2009,07,18,03,11,14.80
2009,07,18,03,12,14.80
2009,07,18,03,13,14.80
2009,07,18,03,14,14.80
2009,07,18,03,15,14.80
2009,07,18,03,16,14.80
2009,07,18,03,17,14.80
2009,07,18,03,18,14.70
2009,07,18,03,19,14.70
2009,07,18,03,20,14.60
2009,07,18,03,21,14.60
2009,07,18,03,22,14.60
2009,07,18,03,23,14.60
2009,07,18,03,24,14.60
2009,07,18,03,25,14.50
2009,07,18,03,26,14.50
2009,07,18,03,27,14.50
2009,07,18,03,28,14.50
2009,07,18,03,29,14.50
2009,07,18,03,30,14.50
2009,07,18,03,31,14.50
2009,07,18,03,32,14.60
2009,07,18,03,33,14.60
2009,07,18,03,34,14.60
2009,07,18,03,35,14.50
2009,07,18,03,36,14.50
2009,07,18,03,37,14.50
2009,07,18,03,38,14.40
2009,07,18,03,39,14.40
2009,07,18,03,40,14.40
2009,07,18,03,41,14.40
2009,07,18,03,42,14.40
2009,07,18,03,43,14.40
2009,07,18,03,44,14.40
2009,07,18,03,45,14.40
2009,07,18,03,46,14.40
2009,07,18,03,47,14.40
2009,07,18,03,48,14.40
2009,07,18,03,49,14.30
2009,07,18,03,50,14.30
2009,07,18,03,51,14.30
2009,07,18,03,52,14.30
2009,07,18,03,53,14.40
2009,07,18,03,54,14.40
2009,07,18,03,55,14.40
2009,07,18,03,56,14.40
2009,07,18,03,57,14.40
2009,07,18,03,58,14.40
2009,07,18,03,59,14.50
2009,07,18,04,00,14.60
2009,07,18,04,01,14.70
2009,07,18,04,02,14.80
2009,07,18,04,03,14.80
2009,07,18,04,04,14.90
2009,07,18,04,05,15.00
2009,07,18,04,06,15.00
2009,07,18,04,07,15.10
2009,07,18,04,08,15.10
2009,07,18,04,09,15.20
2009,07,18,04,10,15.20
2009,07,18,04,11,15.10
2009,07,18,04,12,15.10
2009,07,18,04,13,15.00
2009,07,18,04,14,15.10
2009,07,18,04,15,15.10
2009,07,18,04,16,15.10
2009,07,18,04,17,15.20
2009,07,18,04,18,15.20
2009,07,18,04,19,15.20
2009,07,18,04,20,15.10
2009,07,18,04,21,15.10
2009,07,18,04,22,15.00
2009,07,18,04,23,15.00
2009,07,18,04,24,14.90
2009,07,18,04,25,14.90
2009,07,18,04,26,14.80
2009,07,18,04,27,14.80
2009,07,18,04,28,14.80
2009,07,18,04,29,14.80
2009,07,18,04,30,14.80
2009,07,18,04,31,14.80
2009,07,18,04,32,14.80
2009,07,18,04,33,14.80
2009,07,18,04,34,14.80
2009,07,18,04,35,14.80
2009,07,18,04,36,14.80
2009,07,18,04,37,14.80
2009,07,18,04,38,14.80
2009,07,18,04,39,14.90
2009,07,18,04,40,14.90
2009,07,18,04,41,14.90
2009,07,18,04,42,15.00
2009,07,18,04,43,15.00
2009,07,18,04,44,15.00
2009,07,18,04,45,15.10
2009,07,18,04,46,15.10
2009,07,18,04,47,15.10
2009,07,18,04,48,15.20
2009,07,18,04,49,15.20
2009,07,18,04,50,15.20
2009,07,18,04,51,15.30
2009,07,18,04,52,15.30
2009,07,18,04,53,15.30
2009,07,18,04,54,15.40
2009,07,18,04,55,15.40
2009,07,18,04,56,15.50
2009,07,18,04,57,15.50
2009,07,18,04,58,15.50
2009,07,18,04,59,15.50
2009,07,18,05,00,15.50
2009,07,18,05,01,15.50
2009,07,18,05,02,15.50
2009,07,18,05,03,15.50
2009,07,18,05,04,15.50
2009,07,18,05,05,15.50
2009,07,18,05,06,15.50
2009,07,18,05,07,15.40
2009,07,18,05,08,15.40
2009,07,18,05,09,15.30
2009,07,18,05,10,15.30
2009,07,18,05,11,15.30
2009,07,18,05,12,15.30
2009,07,18,05,13,15.30
2009,07,18,05,14,15.20
2009,07,18,05,15,15.20
2009,07,18,05,16,15.20
2009,07,18,05,17,15.20
2009,07,18,05,18,15.10
2009,07,18,05,19,15.10
2009,07,18,05,20,15.10
2009,07,18,05,21,15.00
2009,07,18,05,22,15.00
2009,07,18,05,23,15.00
2009,07,18,05,24,15.00
2009,07,18,05,25,15.00
2009,07,18,05,26,15.00
2009,07,18,05,27,15.00
2009,07,18,05,28,15.00
2009,07,18,05,29,14.90
2009,07,18,05,30,14.90
2009,07,18,05,31,14.90
2009,07,18,05,32,14.90
2009,07,18,05,33,14.90
2009,07,18,05,34,14.90
2009,07,18,05,35,15.00
2009,07,18,05,36,15.00
2009,07,18,05,37,15.00
2009,07,18,05,38,15.00
2009,07,18,05,39,15.00
2009,07,18,05,40,15.10
2009,07,18,05,41,15.10
2009,07,18,05,42,15.10
2009,07,18,05,43,15.10
2009,07,18,05,44,15.10
2009,07,18,05,45,15.20
2009,07,18,05,46,15.20
2009,07,18,05,47,15.20
2009,07,18,05,48,15.20
2009,07,18,05,49,15.20
2009,07,18,05,50,15.20
2009,07,18,05,51,15.20
2009,07,18,05,52,15.20
2009,07,18,05,53,15.20
2009,07,18,05,54,15.20
2009,07,18,05,55,15.20
2009,07,18,05,56,15.20
2009,07,18,05,57,15.20
2009,07,18,05,58,15.20
2009,07,18,05,59,15.20
2009,07,18,06,00,15.20
2009,07,18,06,01,15.20
2009,07,18,06,02,15.30
2009,07,18,06,03,15.30
2009,07,18,06,04,15.30
2009,07,18,06,05,15.30
2009,07,18,06,06,15.30
2009,07,18,06,07,15.30
2009,07,18,06,08,15.30
2009,07,18,06,09,15.30
2009,07,18,06,10,15.30
2009,07,18,06,11,15.20
2009,07,18,06,12,15.20
2009,07,18,06,13,15.30
2009,07,18,06,14,15.30
2009,07,18,06,15,15.30
2009,07,18,06,16,15.30
2009,07,18,06,17,15.30
2009,07,18,06,18,15.30
2009,07,18,06,19,15.30
2009,07,18,06,20,15.30
2009,07,18,06,21,15.30
2009,07,18,06,22,15.30
2009,07,18,06,23,15.20
2009,07,18,06,24,15.20
2009,07,18,06,25,15.20
2009,07,18,06,26,15.20
2009,07,18,06,27,15.20
2009,07,18,06,28,15.20
2009,07,18,06,29,15.20
2009,07,18,06,30,15.20
2009,07,18,06,31,15.20
2009,07,18,06,32,15.20
2009,07,18,06,33,15.20
2009,07,18,06,34,15.20
2009,07,18,06,35,15.20
2009,07,18,06,36,15.20
2009,07,18,06,37,15.20
2009,07,18,06,38,15.20
2009,07,18,06,39,15.20
2009,07,18,06,40,15.20
2009,07,18,06,41,15.20
2009,07,18,06,42,15.20
2009,07,18,06,43,15.20
2009,07,18,06,44,15.20
2009,07,18,06,45,15.20
2009,07,18,06,46,15.20
2009,07,18,06,47,15.20
2009,07,18,06,48,15.20
2009,07,18,06,49,15.20
2009,07,18,06,50,15.20
2009,07,18,06,51,15.20
2009,07,18,06,52,15.20
2009,07,18,06,53,15.30
2009,07,18,06,54,15.30
2009,07,18,06,55,15.30
2009,07,18,06,56,15.30
2009,07,18,06,57,15.30
2009,07,18,06,58,15.30
2009,07,18,06,59,15.40
2009,07,18,07,00,15.40
2009,07,18,07,01,15.40
2009,07,18,07,02,15.50
2009,07,18,07,03,15.50
2009,07,18,07,04,15.50
2009,07,18,07,05,15.50
2009,07,18,07,06,15.60
2009,07,18,07,07,15.60
2009,07,18,07,08,15.60
2009,07,18,07,09,15.70
2009,07,18,07,10,15.70
2009,07,18,07,11,15.70
2009,07,18,07,12,15.70
2009,07,18,07,13,15.80
2009,07,18,07,14,15.80
2009,07,18,07,15,15.80
2009,07,18,07,16,15.80
2009,07,18,07,17,15.80
2009,07,18,07,18,15.80
2009,07,18,07,19,15.80
2009,07,18,07,20,15.90
2009,07,18,07,21,15.90
2009,07,18,07,22,16.00
2009,07,18,07,23,16.10
2009,07,18,07,24,16.10
2009,07,18,07,25,16.10
2009,07,18,07,26,16.20
2009,07,18,07,27,16.20
2009,07,18,07,28,16.20
2009,07,18,07,29,16.30
2009,07,18,07,30,16.30
2009,07,18,07,31,16.30
2009,07,18,07,32,16.40
2009,07,18,07,33,16.40
2009,07,18,07,34,16.40
2009,07,18,07,35,16.40
2009,07,18,07,36,16.40
2009,07,18,07,37,16.50
2009,07,18,07,38,16.60
2009,07,18,07,39,16.60
2009,07,18,07,40,16.70
2009,07,18,07,41,16.70
2009,07,18,07,42,16.80
2009,07,18,07,43,16.80
2009,07,18,07,44,16.90
2009,07,18,07,45,17.00
2009,07,18,07,46,17.00
2009,07,18,07,47,17.10
2009,07,18,07,48,17.10
2009,07,18,07,49,17.20
2009,07,18,07,50,17.20
2009,07,18,07,51,17.20
2009,07,18,07,52,17.20
2009,07,18,07,53,17.30
2009,07,18,07,54,17.30
2009,07,18,07,55,17.30
2009,07,18,07,56,17.30
2009,07,18,07,57,17.30
2009,07,18,07,58,17.30
2009,07,18,07,59,17.30
2009,07,18,08,00,17.40
2009,07,18,08,01,17.40
2009,07,18,08,02,17.40
2009,07,18,08,03,17.40
2009,07,18,08,04,17.50
2009,07,18,08,05,17.60
2009,07,18,08,06,17.70
2009,07,18,08,07,17.80
2009,07,18,08,08,17.90
2009,07,18,08,09,18.00
2009,07,18,08,10,18.10
2009,07,18,08,11,18.20
2009,07,18,08,12,18.20
2009,07,18,08,13,18.20
2009,07,18,08,14,18.20
2009,07,18,08,15,18.20
2009,07,18,08,16,18.20
2009,07,18,08,17,18.20
2009,07,18,08,18,18.20
2009,07,18,08,19,18.20
2009,07,18,08,20,18.20
2009,07,18,08,21,18.20
2009,07,18,08,22,18.20
2009,07,18,08,23,18.30
2009,07,18,08,24,18.30
2009,07,18,08,25,18.40
2009,07,18,08,26,18.40
2009,07,18,08,27,18.50
2009,07,18,08,28,18.50
2009,07,18,08,29,18.60
2009,07,18,08,30,18.60
2009,07,18,08,31,18.70
2009,07,18,08,32,18.70
2009,07,18,08,33,18.80
2009,07,18,08,34,18.80
2009,07,18,08,35,18.80
2009,07,18,08,36,18.80
2009,07,18,08,37,18.80
2009,07,18,08,38,18.80
2009,07,18,08,39,18.90
2009,07,18,08,40,18.90
2009,07,18,08,41,18.90
2009,07,18,08,42,19.00
2009,07,18,08,43,19.10
2009,07,18,08,44,19.10
2009,07,18,08,45,19.10
2009,07,18,08,46,19.20
2009,07,18,08,47,19.20
2009,07,18,08,48,19.20
2009,07,18,08,49,19.30
2009,07,18,08,50,19.30
2009,07,18,08,51,19.30
2009,07,18,08,52,19.40
2009,07,18,08,53,19.50
2009,07,18,08,54,19.50
2009,07,18,08,55,19.50
2009,07,18,08,56,19.60
2009,07,18,08,57,19.60
2009,07,18,08,58,19.60
2009,07,18,08,59,19.60
2009,07,18,09,00,19.60
2009,07,18,09,01,19.60
2009,07,18,09,02,19.50
2009,07,18,09,03,19.50
2009,07,18,09,04,19.50
2009,07,18,09,05,19.40
2009,07,18,09,06,19.50
2009,07,18,09,07,19.50
2009,07,18,09,08,19.60
2009,07,18,09,09,19.60
2009,07,18,09,10,19.70
2009,07,18,09,11,19.70
2009,07,18,09,12,19.70
2009,07,18,09,13,19.70
2009,07,18,09,14,19.80
2009,07,18,09,15,19.80
2009,07,18,09,16,19.80
2009,07,18,09,17,19.80
2009,07,18,09,18,19.70
2009,07,18,09,19,19.70
2009,07,18,09,20,19.80
2009,07,18,09,21,19.80
2009,07,18,09,22,19.70
2009,07,18,09,23,19.70
2009,07,18,09,24,19.70
2009,07,18,09,25,19.70
2009,07,18,09,26,19.60
2009,07,18,09,27,19.50
2009,07,18,09,28,19.50
2009,07,18,09,29,19.50
2009,07,18,09,30,19.50
2009,07,18,09,31,19.50
2009,07,18,09,32,19.50
2009,07,18,09,33,19.50
2009,07,18,09,34,19.60
2009,07,18,09,35,19.60
2009,07,18,09,36,19.60
2009,07,18,09,37,19.70
2009,07,18,09,38,19.70
2009,07,18,09,39,19.70
2009,07,18,09,40,19.80
2009,07,18,09,41,19.80
2009,07,18,09,42,19.80
2009,07,18,09,43,19.80
2009,07,18,09,44,19.70
2009,07,18,09,45,19.70
2009,07,18,09,46,19.60
2009,07,18,09,47,19.70
2009,07,18,09,48,19.80
2009,07,18,09,49,19.80
2009,07,18,09,50,19.80
2009,07,18,09,51,19.80
2009,07,18,09,52,19.80
2009,07,18,09,53,19.70
2009,07,18,09,54,19.70
2009,07,18,09,55,19.70
2009,07,18,09,56,19.70
2009,07,18,09,57,19.80
2009,07,18,09,58,19.90
2009,07,18,09,59,20.00
2009,07,18,10,00,20.20
2009,07,18,10,01,20.20
2009,07,18,10,02,20.20
2009,07,18,10,03,20.20
2009,07,18,10,04,20.20
2009,07,18,10,05,20.20
2009,07,18,10,06,20.20
2009,07,18,10,07,20.10
2009,07,18,10,08,20.10
2009,07,18,10,09,19.90
2009,07,18,10,10,19.90
2009,07,18,10,11,19.90
2009,07,18,10,12,19.90
2009,07,18,10,13,19.90
2009,07,18,10,14,19.90
2009,07,18,10,15,19.90
2009,07,18,10,16,19.90
2009,07,18,10,17,19.90
2009,07,18,10,18,20.00
2009,07,18,10,19,20.10
2009,07,18,10,20,20.10
2009,07,18,10,21,20.20
2009,07,18,10,22,20.20
2009,07,18,10,23,20.20
2009,07,18,10,24,20.30
2009,07,18,10,25,20.40
2009,07,18,10,26,20.40
2009,07,18,10,27,20.40
2009,07,18,10,28,20.40
2009,07,18,10,29,20.50
2009,07,18,10,30,20.60
2009,07,18,10,31,20.70
2009,07,18,10,32,20.70
2009,07,18,10,33,20.70
2009,07,18,10,34,20.60
2009,07,18,10,35,20.70
2009,07,18,10,36,20.70
2009,07,18,10,37,20.60
2009,07,18,10,38,20.60
2009,07,18,10,39,20.60
2009,07,18,10,40,20.50
2009,07,18,10,41,20.40
2009,07,18,10,42,20.40
2009,07,18,10,43,20.40
2009,07,18,10,44,20.50
2009,07,18,10,45,20.50
2009,07,18,10,46,20.40
2009,07,18,10,47,20.30
2009,07,18,10,48,20.30
2009,07,18,10,49,20.30
2009,07,18,10,50,20.30
2009,07,18,10,51,20.40
2009,07,18,10,52,20.50
2009,07,18,10,53,20.50
2009,07,18,10,54,20.60
2009,07,18,10,55,20.60
2009,07,18,10,56,20.50
2009,07,18,10,57,20.50
2009,07,18,10,58,20.40
2009,07,18,10,59,20.40
2009,07,18,11,00,20.40
2009,07,18,11,01,20.40
2009,07,18,11,02,20.40
2009,07,18,11,03,20.50
2009,07,18,11,04,20.50
2009,07,18,11,05,20.60
2009,07,18,11,06,20.60
2009,07,18,11,07,20.70
2009,07,18,11,08,20.70
2009,07,18,11,09,20.80
2009,07,18,11,10,21.00
2009,07,18,11,11,21.10
2009,07,18,11,12,21.30
2009,07,18,11,13,21.30
2009,07,18,11,14,21.50
2009,07,18,11,15,21.60
2009,07,18,11,16,21.60
2009,07,18,11,17,21.60
2009,07,18,11,18,21.60
2009,07,18,11,19,21.60
2009,07,18,11,20,21.60
2009,07,18,11,21,21.50
2009,07,18,11,22,21.60
2009,07,18,11,23,21.60
2009,07,18,11,24,21.60
2009,07,18,11,25,21.40
2009,07,18,11,26,21.50
2009,07,18,11,27,21.60
2009,07,18,11,28,21.40
2009,07,18,11,29,21.40
2009,07,18,11,30,21.30
2009,07,18,11,31,21.30
2009,07,18,11,32,21.30
2009,07,18,11,33,21.30
2009,07,18,11,34,21.40
2009,07,18,11,35,21.50
2009,07,18,11,36,21.60
2009,07,18,11,37,21.60
2009,07,18,11,38,21.60
2009,07,18,11,39,21.60
2009,07,18,11,40,21.60
2009,07,18,11,41,21.70
2009,07,18,11,42,21.80
2009,07,18,11,43,22.00
2009,07,18,11,44,22.00
2009,07,18,11,45,22.10
2009,07,18,11,46,22.10
2009,07,18,11,47,22.30
2009,07,18,11,48,22.40
2009,07,18,11,49,22.50
2009,07,18,11,50,22.40
2009,07,18,11,51,22.50
2009,07,18,11,52,22.50
2009,07,18,11,53,22.60
2009,07,18,11,54,22.60
2009,07,18,11,55,22.60
2009,07,18,11,56,22.60
2009,07,18,11,57,22.60
2009,07,18,11,58,22.60
2009,07,18,11,59,22.60
2009,07,18,12,00,22.60
2009,07,18,12,01,22.60
2009,07,18,12,02,22.60
2009,07,18,12,03,22.60
2009,07,18,12,04,22.60
2009,07,18,12,05,22.60
2009,07,18,12,06,22.60
2009,07,18,12,07,22.60
2009,07,18,12,08,22.50
2009,07,18,12,09,22.40
2009,07,18,12,10,22.40
2009,07,18,12,11,22.40
2009,07,18,12,12,22.60
2009,07,18,12,13,22.60
2009,07,18,12,14,22.60
2009,07,18,12,15,22.70
2009,07,18,12,16,22.70
2009,07,18,12,17,22.90
2009,07,18,12,18,23.00
2009,07,18,12,19,23.20
2009,07,18,12,20,23.30
2009,07,18,12,21,23.30
2009,07,18,12,22,23.30
2009,07,18,12,23,23.40
2009,07,18,12,24,23.60
2009,07,18,12,25,23.70
2009,07,18,12,26,23.70
2009,07,18,12,27,23.70
2009,07,18,12,28,23.70
2009,07,18,12,29,23.70
2009,07,18,12,30,23.70
2009,07,18,12,31,23.70
2009,07,18,12,32,23.50
2009,07,18,12,33,23.40
2009,07,18,12,34,23.30
2009,07,18,12,35,23.30
2009,07,18,12,36,23.30
2009,07,18,12,37,23.30
2009,07,18,12,38,23.30
2009,07,18,12,39,23.20
2009,07,18,12,40,23.10
2009,07,18,12,41,23.00
2009,07,18,12,42,22.90
2009,07,18,12,43,22.90
2009,07,18,12,44,22.90
2009,07,18,12,45,22.90
2009,07,18,12,46,22.80
2009,07,18,12,47,22.80
2009,07,18,12,48,22.80
2009,07,18,12,49,22.70
2009,07,18,12,50,22.70
2009,07,18,12,51,22.60
2009,07,18,12,52,22.60
2009,07,18,12,53,22.50
2009,07,18,12,54,22.50
2009,07,18,12,55,22.40
2009,07,18,12,56,22.40
2009,07,18,12,57,22.40
2009,07,18,12,58,22.30
2009,07,18,12,59,22.40
2009,07,18,13,00,22.40
2009,07,18,13,01,22.40
2009,07,18,13,02,22.40
2009,07,18,13,03,22.50
2009,07,18,13,04,22.40
2009,07,18,13,05,22.40
2009,07,18,13,06,22.40
2009,07,18,13,07,22.40
2009,07,18,13,08,22.40
2009,07,18,13,09,22.30
2009,07,18,13,10,22.30
2009,07,18,13,11,22.30
2009,07,18,13,12,22.30
2009,07,18,13,13,22.20
2009,07,18,13,14,22.20
2009,07,18,13,15,22.20
2009,07,18,13,16,22.20
2009,07,18,13,17,22.20
2009,07,18,13,18,22.20
2009,07,18,13,19,22.20
2009,07,18,13,20,22.30
2009,07,18,13,21,22.30
2009,07,18,13,22,22.20
2009,07,18,13,23,22.10
2009,07,18,13,24,22.20
2009,07,18,13,25,22.30
2009,07,18,13,26,22.30
2009,07,18,13,27,22.40
2009,07,18,13,28,22.40
2009,07,18,13,29,22.40
2009,07,18,13,30,22.40
2009,07,18,13,31,22.50
2009,07,18,13,32,22.50
2009,07,18,13,33,22.60
2009,07,18,13,34,22.60
2009,07,18,13,35,22.70
2009,07,18,13,36,22.80
2009,07,18,13,37,22.80
2009,07,18,13,38,22.80
2009,07,18,13,39,22.80
2009,07,18,13,40,22.70
2009,07,18,13,41,22.70
2009,07,18,13,42,22.70
2009,07,18,13,43,22.70
2009,07,18,13,44,22.80
2009,07,18,13,45,22.80
2009,07,18,13,46,22.80
2009,07,18,13,47,22.90
2009,07,18,13,48,22.90
2009,07,18,13,49,22.90
2009,07,18,13,50,22.90
2009,07,18,13,51,22.90
2009,07,18,13,52,22.90
2009,07,18,13,53,22.90
2009,07,18,13,54,23.00
2009,07,18,13,55,23.10
2009,07,18,13,56,23.10
2009,07,18,13,57,23.10
2009,07,18,13,58,23.10
2009,07,18,13,59,23.10
2009,07,18,14,00,23.10
2009,07,18,14,01,23.20
2009,07,18,14,02,23.30
2009,07,18,14,03,23.30
2009,07,18,14,04,23.40
2009,07,18,14,05,23.40
2009,07,18,14,06,23.40
2009,07,18,14,07,23.30
2009,07,18,14,08,23.30
2009,07,18,14,09,23.30
2009,07,18,14,10,23.30
2009,07,18,14,11,23.30
2009,07,18,14,12,23.20
2009,07,18,14,13,23.20
2009,07,18,14,14,23.20
2009,07,18,14,15,23.30
2009,07,18,14,16,23.30
2009,07,18,14,17,23.30
2009,07,18,14,18,23.40
2009,07,18,14,19,23.50
2009,07,18,14,20,23.50
2009,07,18,14,21,23.40
2009,07,18,14,22,23.30
2009,07,18,14,23,23.30
2009,07,18,14,24,23.40
2009,07,18,14,25,23.40
2009,07,18,14,26,23.30
2009,07,18,14,27,23.30
2009,07,18,14,28,23.40
2009,07,18,14,29,23.40
2009,07,18,14,30,23.60
2009,07,18,14,31,23.60
2009,07,18,14,32,23.70
2009,07,18,14,33,23.70
2009,07,18,14,34,23.70
2009,07,18,14,35,23.60
2009,07,18,14,36,23.60
2009,07,18,14,37,23.60
2009,07,18,14,38,23.60
2009,07,18,14,39,23.60
2009,07,18,14,40,23.70
2009,07,18,14,41,23.70
2009,07,18,14,42,23.70
2009,07,18,14,43,23.70
2009,07,18,14,44,23.70
2009,07,18,14,45,23.70
2009,07,18,14,46,23.70
2009,07,18,14,47,23.80
2009,07,18,14,48,23.90
2009,07,18,14,49,23.90
2009,07,18,14,50,23.90
2009,07,18,14,51,24.00
2009,07,18,14,52,24.10
2009,07,18,14,53,24.00
2009,07,18,14,54,23.90
2009,07,18,14,55,23.90
2009,07,18,14,56,24.10
2009,07,18,14,57,24.10
2009,07,18,14,58,24.10
2009,07,18,14,59,24.20
2009,07,18,15,00,24.10
2009,07,18,15,01,24.00
2009,07,18,15,02,23.90
2009,07,18,15,03,23.80
2009,07,18,15,04,23.80
2009,07,18,15,05,23.80
2009,07,18,15,06,23.80
2009,07,18,15,07,23.80
2009,07,18,15,08,23.80
2009,07,18,15,09,23.70
2009,07,18,15,10,23.60
2009,07,18,15,11,23.50
2009,07,18,15,12,23.40
2009,07,18,15,13,23.30
2009,07,18,15,14,23.20
2009,07,18,15,15,23.10
2009,07,18,15,16,23.10
2009,07,18,15,17,23.20
2009,07,18,15,18,23.20
2009,07,18,15,19,23.30
2009,07,18,15,20,23.50
2009,07,18,15,21,23.50
2009,07,18,15,22,23.40
2009,07,18,15,23,23.30
2009,07,18,15,24,23.30
2009,07,18,15,25,23.30
2009,07,18,15,26,23.30
2009,07,18,15,27,23.20
2009,07,18,15,28,23.20
2009,07,18,15,29,23.20
2009,07,18,15,30,23.20
2009,07,18,15,31,23.10
2009,07,18,15,32,23.00
2009,07,18,15,33,22.90
2009,07,18,15,34,22.90
2009,07,18,15,35,22.90
2009,07,18,15,36,22.90
2009,07,18,15,37,22.90
2009,07,18,15,38,22.90
2009,07,18,15,39,22.80
2009,07,18,15,40,22.80
2009,07,18,15,41,22.90
2009,07,18,15,42,23.00
2009,07,18,15,43,23.10
2009,07,18,15,44,23.20
2009,07,18,15,45,23.20
2009,07,18,15,46,23.10
2009,07,18,15,47,23.00
2009,07,18,15,48,22.90
2009,07,18,15,49,22.90
2009,07,18,15,50,22.90
2009,07,18,15,51,22.90
2009,07,18,15,52,22.90
2009,07,18,15,53,22.90
2009,07,18,15,54,22.80
2009,07,18,15,55,22.80
2009,07,18,15,56,22.90
2009,07,18,15,57,22.90
2009,07,18,15,58,22.80
2009,07,18,15,59,22.80
2009,07,18,16,00,22.60
2009,07,18,16,01,22.60
2009,07,18,16,02,22.50
2009,07,18,16,03,22.50
2009,07,18,16,04,22.50
2009,07,18,16,05,22.50
2009,07,18,16,06,22.50
2009,07,18,16,07,22.50
2009,07,18,16,08,22.60
2009,07,18,16,09,22.70
2009,07,18,16,10,22.70
2009,07,18,16,11,22.60
2009,07,18,16,12,22.60
2009,07,18,16,13,22.60
2009,07,18,16,14,22.60
2009,07,18,16,15,22.60
2009,07,18,16,16,22.60
2009,07,18,16,17,22.60
2009,07,18,16,18,22.60
2009,07,18,16,19,22.50
2009,07,18,16,20,22.40
2009,07,18,16,21,22.40
2009,07,18,16,22,22.40
2009,07,18,16,23,22.40
2009,07,18,16,24,22.40
2009,07,18,16,25,22.40
2009,07,18,16,26,22.50
2009,07,18,16,27,22.40
2009,07,18,16,28,22.30
2009,07,18,16,29,22.20
2009,07,18,16,30,22.10
2009,07,18,16,31,22.10
2009,07,18,16,32,22.10
2009,07,18,16,33,22.00
2009,07,18,16,34,22.00
2009,07,18,16,35,22.00
2009,07,18,16,36,21.90
2009,07,18,16,37,21.90
2009,07,18,16,38,21.80
2009,07,18,16,39,21.80
2009,07,18,16,40,21.90
2009,07,18,16,41,22.00
2009,07,18,16,42,22.00
2009,07,18,16,43,22.10
2009,07,18,16,44,22.00
2009,07,18,16,45,22.00
2009,07,18,16,46,21.90
2009,07,18,16,47,21.80
2009,07,18,16,48,21.90
2009,07,18,16,49,21.90
2009,07,18,16,50,21.90
2009,07,18,16,51,21.90
2009,07,18,16,52,22.00
2009,07,18,16,53,22.00
2009,07,18,16,54,22.00
2009,07,18,16,55,22.10
2009,07,18,16,56,22.10
2009,07,18,16,57,22.20
2009,07,18,16,58,22.20
2009,07,18,16,59,22.10
2009,07,18,17,00,22.00
2009,07,18,17,01,21.90
2009,07,18,17,02,21.90
2009,07,18,17,03,21.80
2009,07,18,17,04,21.70
2009,07,18,17,05,21.60
2009,07,18,17,06,21.60
2009,07,18,17,07,21.60
2009,07,18,17,08,21.60
2009,07,18,17,09,21.80
2009,07,18,17,10,21.80
2009,07,18,17,11,21.90
2009,07,18,17,12,21.90
2009,07,18,17,13,21.90
2009,07,18,17,14,21.90
2009,07,18,17,15,21.80
2009,07,18,17,16,21.80
2009,07,18,17,17,21.70
2009,07,18,17,18,21.60
2009,07,18,17,19,21.60